OBJECT F, 63987

Orbit data source: Space-Track

You're viewing an Uncataloged Satellite

Recently launched and/or uncataloged satellites may have evolving metadata. Metadata may include but not limited to: Owner, Maufacturer, Bus, Motor, and Mission.

OBJECT F, 63987 is a Chinese satellite in SSO that was launched on Wed, 14 May 2025 UTC via a CHANG ZHENG 2D launch vehicle from the Jiuquan Satellite Launch Center, China (JSC). Unknown objects in Earth's orbit typically refer to objects detected orbiting the Earth but have not yet been identified or cataloged. These objects could be anything from previously untracked satellites, spent rocket stages, debris from satellite collisions, or even natural meteoroids temporarily captured by Earth's gravity.

Loading next visibility...
Identifier
63987, 2025-100F
Orbit
SSO
Country
Flag of CNCN / PRC
Related business
None
Manufacturer
Unknown
Mission
Operational Commercial Technology
Bus & Motor
Unknown
Mass
Unknown
Launch date (UTC)
2025-05-14 (6 months ago)
Launch vehicle
CHANG ZHENG 2D
Launch site
Jiuquan Satellite Launch Center, China (JSC)
Object type
Unknown
Shape & HBR
Box + 2 Pan, 0.9 m
Radar Cross Section
0.135 m², Large (>1 m²)

Expand to show TLE details & history
Last TLE update: 6 hours ago

TLE from 6 hours ago
0 OBJECT F
1 63987U 25100F   25311.27697056  .00030348  00000-0  12901-2 0  9998
2 63987  97.3898  23.7173 0010196  16.4332 343.7233 15.22937513 26908
Epoch: 2025-11-07T06:38Z
TLE epoch observation values (Epoch: 2025-11-07T06:38:50.256Z)
Latitude
-0.00005°
Longitude
-122.71534°
Altitude
493.351 km
Speed
7.622 km/s
True Right ascension
01h 34m 52s
True Declination
0° 00' 00"
Sunlit
Object was in full shadow at epoch
Visualization orbit readout
Latitude
Unknown
Longitude
Unknown
Altitude
Unknown
Speed
Unknown
Apparent Right ascension
Unknown
Apparent Declination
Unknown
Sunlit
N/A
Visualization observer readout
Local Sidereal Time
09:01:15
Azimuth
Unknown
Elevation
Unknown
Doppler factor
Unknown
Orbital elements
Apogee altitude
500.954 km
Perigee altitude
486.94 km
Semi-major axis
6,872.084 km
Eccentricity
0.00102
Inclination
97.3898°
RAAN
23.7173°
Arg. of periapsis
16.4332°
True anomaly
343.69051°
Mean anomaly
343.7233°
Eccentric anomaly
343.70691°
Mean motion
3.80987 °/min
Orbital period
94.49 mins
BSTAR
0.0012901
Loading maneuver chart data...
Computing Atmospheric mass density...
Loading historical data...
Loading historical data...
Loading historical data...
Loading historical data...
Loading historical data...
Loading historical data...
Loading historical data...

Documentation

Showing up to 5 results
|